Home > Time Zones > World Clock > Weather > Canada > Ajax > Past weeks

Flag for Canada Weather past 2 weeks in Ajax, Ontario, Canada

Now
68 °F

Partly sunny.


Feels Like: 68 °F
Forecast: 54 / 76 °F
Wind: 2 mph from North

Location: Toronto Buttonville

Current Time: Jul 4, 2015 at 10:25:40 AM

Latest Report: Jul 4, 2015 at 10:00 AM


Visibility: 15 mi

Pressure: 29.95 "Hg

Humidity: 53%

Dew point: 50 °F

Location of AjaxLocation

Historic Weather in Ajax — Graph

°F

Ajax temperature yesterday

Maximum temperature yesterday: 72 °F (at 12:00 PM)
Minimum temperature yesterday: 54 °F (at 1:00 AM)
Average temperature yesterday: 64 °F

Past Weeks' High & Low Weather Summary

 TemperatureHumidityPressure
High79 °F (Jun 21, 12:00 PM)100% (Jun 23, 1:04 AM)30.11 "Hg (Jun 23, 1:04 AM)
Low50 °F (Jun 20, 5:00 AM)31% (Jul 3, 5:00 PM)29.62 "Hg (Jun 23, 5:00 AM)
Average65 °F71%29.92 "Hg
* Reported Jun 19 9:00 AM — Jul 4 9:00 AM, Ajax, Weather by CustomWeather, © 2015

Note: Actual official high and low records may vary slightly from our data, if they occured in-between our weather recording intervals... More about our weather records

Advertising

Ajax weather history for previous 24 hours

 ConditionsComfort  
Time TempWeatherWind HumidityBarometerVisibility
9:00 AM
Sat, Jul 4
64 °FBroken clouds.3 mph60%29.95 "Hg15 mi
8:00 AM59 °FBroken clouds.No wind72%29.94 "Hg15 mi
7:00 AM55 °FScattered clouds.No wind77%29.93 "Hg15 mi
6:00 AM52 °FPassing clouds.2 mph82%29.93 "Hg15 mi
5:00 AM52 °FPassing clouds.2 mph82%29.92 "Hg15 mi
4:00 AM54 °FPassing clouds.3 mph72%29.93 "Hg15 mi
3:00 AM54 °FPassing clouds.5 mph82%29.93 "Hg15 mi
2:00 AM55 °FPassing clouds.3 mph77%29.93 "Hg15 mi
1:00 AM59 °FPartly cloudy.2 mph68%29.94 "Hg15 mi
12:00 AM63 °FPassing clouds.5 mph56%29.94 "Hg15 mi
11:00 PM
Fri, Jul 3
64 °FPassing clouds.No wind46%29.95 "Hg15 mi
10:00 PM64 °FPartly sunny.2 mph46%29.95 "Hg15 mi
9:00 PM66 °FBroken clouds.6 mph43%29.93 "Hg15 mi
8:00 PM68 °FPartly sunny.6 mph46%29.93 "Hg15 mi
7:00 PM72 °FPartly sunny.5 mph41%29.94 "Hg15 mi
6:00 PM72 °FPartly sunny.3 mph31%29.95 "Hg15 mi
5:00 PM72 °FPartly sunny.8 mph31%29.96 "Hg15 mi
4:00 PM72 °FPartly sunny.9 mph33%29.97 "Hg15 mi
3:00 PM72 °FPartly sunny.8 mph36%29.98 "Hg15 mi
2:00 PM72 °FPartly sunny.9 mph36%29.98 "Hg15 mi
1:00 PM72 °FPassing clouds.6 mph44%30.00 "Hg15 mi
12:00 PM72 °FPassing clouds.8 mph38%30.01 "Hg15 mi
11:00 AM68 °FPassing clouds.3 mph43%30.01 "Hg15 mi
10:00 AM66 °FSunny.5 mph52%30.01 "Hg15 mi
Weather by CustomWeather, © 2015

See weather overviewHow to use our weather pages